Location: San Gennaro Vesuviano
(40.8833°N, 14.5333°E)
Time: 11:04:14
(UTC+00:00)

Cosmos 2084 Rocket - Pass Details

Date: 22 April 2021
Orbit: 525 x 655 km, 62.8° (Epoch: 10 May)

Event Time Altitude Azimuth Distance (km) Brightness Sun altitude
Rises 19:15:19 0° 211° (SSW) 2,642 6.8 -15.6°
Reaches altitude 10° 19:17:29 10° 211° (SSW) 1,758 5.9 -15.9°
Maximum altitude 19:21:25 81° 125° (SE) 539 3.1 -16.6°
Drops below altitude 10° 19:25:26 10° 37° (NE) 1,796 5.9 -17.2°
Sets 19:27:40 0° 37° (NE) 2,706 6.8 -17.5°
